Weather reports worldwide

Advertisment
Gardelegen, Germany (10359): temperature & dewpoint: 16.01.2019 04:00:00 - 22.01.2019 04:00:00 (CET)Gardelegen, Germany (10359): temperature 5cm & temperature -5cm: 16.01.2019 04:00:00 - 22.01.2019 04:00:00 (CET)Gardelegen, Germany (10359): temperature -20cm & temperature -100cm: 16.01.2019 04:00:00 - 22.01.2019 04:00:00 (CET)Gardelegen, Germany (10359): wind speed & gusts: 16.01.2019 04:00:00 - 22.01.2019 04:00:00 (CET)Gardelegen, Germany (10359): wind direction: 16.01.2019 04:00:00 - 22.01.2019 04:00:00 (CET)Gardelegen, Germany (10359): reduced air pressure: 16.01.2019 04:00:00 - 22.01.2019 04:00:00 (CET)Gardelegen, Germany (10359): visibility: 16.01.2019 04:00:00 - 22.01.2019 04:00:00 (CET)Gardelegen, Germany (10359): sunshine duration: 16.01.2019 04:00:00 - 22.01.2019 04:00:00 (CET)Gardelegen, Germany (10359): precipitation: 16.01.2019 04:00:00 - 22.01.2019 04:00:00 (CET)
Date & Time tt [°C] td [°C] tt 5cm [°C] tt -5cm [°C] tt -20cm [°C] tt -100cm [°C] ff [km/h] ff [kn] fx [km/h] fx [kn] dd ppp [hPa] vv [km] sd [min] rr [mm]
22.01.2019 04:00:00 -4,0 -5,8 -7,1 -2,3 0,3 5,1 1 1 6 4 SSE 1016,0 8 0 0,0
22.01.2019 03:00:00 -2,7 -5,5 -4,2 -1,9 0,3 5,1 7 4 11 6 S 1016,8 9 0 0,0
22.01.2019 02:00:00 -2,2 -5,3 -3,1 -1,6 0,4 5,1 8 4 11 6 S 1017,2 10 0 0,0
22.01.2019 01:00:00 -2,3 -5,4 -3,7 -1,7 0,4 5,1 7 4 11 6 S 1017,8 10 0 0,0
22.01.2019 00:00:00 -2,7 -5,3 -3,6 -1,7 0,4 5,1 7 4 9 5 SSW 1018,0 9 0 0,0
21.01.2019 23:00:00 -2,2 -5,1 -3,4 -1,4 0,4 5,1 6 4 9 5 S 1018,5 10 0 0,0
21.01.2019 22:00:00 -2,0 -5,1 -3,8 -1,0 0,4 5,2 5 3 11 6 SSW 1018,7 11 0 0,0
21.01.2019 21:00:00 -1,6 -5,0 -1,7 -0,7 0,4 5,2 6 3 11 6 S 1019,1 11 0 0,0
21.01.2019 20:00:00 -1,6 -5,0 -1,7 -0,8 0,4 5,2 3 2 15 8 SSW 1019,3 11 0 0,0
21.01.2019 19:00:00 -1,8 -4,7 -2,3 -0,9 0,4 5,2 7 4 14 8 SSW 1019,4 9 0 0,0
21.01.2019 18:00:00 -1,9 -3,7 -3,7 -0,6 0,4 5,2 5 3 15 8 SSW 1019,8 6 0 0,0
21.01.2019 17:00:00 -1,6 -3,5 -2,3 -0,3 0,4 5,2 9 5 12 7 S 1020,0 6 10 0,0
21.01.2019 16:00:00 -0,6 -3,1 -1,0 -0,2 0,4 5,2 7 4 15 8 SSW 1020,5 7 60 0,0
21.01.2019 15:00:00 -0,8 -4,1 -0,7 -0,2 0,4 5,2 12 7 18 10 SSW 1020,8 7 60 0,0
21.01.2019 14:00:00 -1,4 -4,1 -0,1 -0,3 0,4 5,2 12 7 18 10 SSW 1021,4 7 60 0,0
21.01.2019 13:00:00 -2,6 -4,7 0,1 -0,4 0,4 5,2 7 4 13 7 WSW 1022,6 6 60 0,0
21.01.2019 12:00:00 -3,6 -5,3 -1,4 -0,6 0,4 5,3 6 3 13 7 SW 1023,0 5 60 0,0
21.01.2019 11:00:00 -4,3 -5,5 -2,7 -1,2 0,4 5,3 12 7 16 9 S 1023,6 5 60 0,0
21.01.2019 10:00:00 -5,5 -6,7 -4,5 -2,3 0,4 5,3 6 4 10 5 S 1023,8 3,7 22 0,0
21.01.2019 09:00:00 -6,1 -6,9 -6,3 -2,5 0,4 5,3 6 3 12 6 SW 1024,1 3,0 0 0,0
21.01.2019 08:00:00 -6,4 -7,0 -6,0 -2,5 0,4 5,3 9 5 14 7 S 1023,8 0,7 0 0,0
21.01.2019 07:00:00 -6,4 -7,3 -6,3 -2,4 0,4 5,3 8 5 16 8 SSW 1023,9 3,3 0 0,0
21.01.2019 06:00:00 -6,3 -7,1 -6,1 -2,2 0,5 5,3 10 5 14 8 SSW 1023,8 2,6 0 0,0
21.01.2019 05:00:00 -6,2 -7,0 -6,1 -1,9 0,5 5,4 4 2 9 5 SE 1024,3 2,9 0 0,0
21.01.2019 04:00:00 -5,6 -6,1 -5,4 -1,8 0,5 5,4 3 2 6 4 ESE 1024,3 0,2 0 0,0
21.01.2019 03:00:00 -5,4 -6,0 -5,0 -1,7 0,5 5,4 4 2 8 4 SW 1024,5 0,6 0 0,0
21.01.2019 02:00:00 -5,3 -5,9 -4,9 -1,6 0,5 5,4 4 2 9 5 WSW 1024,4 0,7 0 0,0
21.01.2019 01:00:00 -5,1 -5,7 -4,8 -1,5 0,5 5,4 3 2 8 5 SE 1024,5 1,2 0 0,0
21.01.2019 00:00:00 -4,8 -5,2 -4,4 -1,5 0,5 5,4 4 2 8 4 SW 1024,4 0,3 0 0,0
20.01.2019 23:00:00 -4,5 -5,0 -4,3 -1,4 0,6 5,4 3 2 9 5 E 1024,2 0,2 0 0,0
20.01.2019 22:00:00 -4,4 -4,9 -4,2 -1,5 0,6 5,4 5 3 11 6 NNE 1023,8 0,3 0 0,0
20.01.2019 21:00:00 -4,4 -4,9 -4,2 -1,5 0,6 5,5 4 2 9 5 NE 1023,2 0,2 0 0,0
20.01.2019 20:00:00 -4,3 -4,5 -4,1 -1,7 0,6 5,5 5 3 11 6 ENE 1022,6 0,1 0 0,0
20.01.2019 19:00:00 -4,6 -5,6 -7,5 -2,1 0,6 5,5 2 1 4 2 NE 1022,1 5 0 0,0
20.01.2019 18:00:00 -3,4 -4,8 -6,6 -1,2 0,6 5,5 0 0 6 3 N 1021,6 6 0 0,0
20.01.2019 17:00:00 -1,6 -3,9 -3,6 -0,4 0,6 5,5 4 2 10 5 NE 1021,1 7 7 0,0
20.01.2019 16:00:00 -0,3 -3,9 -1,3 -0,2 0,6 5,5 6 3 14 7 NE 1020,7 11 60 0,0
20.01.2019 15:00:00 -0,5 -2,8 -0,4 -0,2 0,6 5,5 8 5 15 8 N 1020,4 6 60 0,0
20.01.2019 14:00:00 -0,7 -3,2 0,8 -0,3 0,6 5,5 5 3 9 5 NNW 1020,3 7 60 0,0
20.01.2019 13:00:00 -2,0 -4,2 -0,3 -0,5 0,7 5,5 4 2 9 5 N 1020,3 4,5 57 0,0
20.01.2019 12:00:00 -3,2 -4,6 -1,1 -0,9 0,7 5,5 4 2 12 6 N 1020,3 3,5 49 0,0
20.01.2019 11:00:00 -3,9 -5,7 -1,9 -1,8 0,7 5,6 4 2 7 4 N 1020,2 4,8 60 0,0
20.01.2019 10:00:00 -6,2 -7,1 -5,6 -3,1 0,8 5,6 2 1 4 2 NNE 1019,8 2,4 10 0,0
20.01.2019 09:00:00 -8,0 -9,2 -10,0 -4,1 0,8 5,6 2 1 4 2 N 1019,4 6 0 0,0
20.01.2019 08:00:00 -8,4 -9,4 -11,1 -4,0 0,9 5,6 0 0 4 2 N 1018,6 5 0 0,0
20.01.2019 07:00:00 -8,1 -9,2 -10,6 -3,7 0,9 5,6 0 0 5 3 N 1018,4 6 0 0,0
20.01.2019 06:00:00 -7,6 -8,6 -10,0 -3,3 1,0 5,6 0 0 4 2 N 1018,2 6 0 0,0
20.01.2019 05:00:00 -6,8 -7,8 -9,4 -2,9 1,1 5,6 2 1 4 2 E 1018,0 5 0 0,0
20.01.2019 04:00:00 -6,5 -7,5 -8,9 -2,5 1,1 5,6 0 0 4 2 N 1018,1 6 0 0,0
20.01.2019 03:00:00 -6,3 -7,2 -8,9 -2,1 1,2 5,7 0 0 4 2 N 1018,1 6 0 0,0
20.01.2019 02:00:00 -5,9 -6,6 -8,3 -1,7 1,2 5,7 0 0 4 2 N 1018,3 4,4 0 0,0
20.01.2019 01:00:00 -5,4 -6,3 -8,3 -1,3 1,3 5,7 2 1 4 2 N 1018,6 5 0 0,0
20.01.2019 00:00:00 -5,0 -5,7 -7,3 -0,9 1,3 5,7 4 2 4 2 NNE 1018,8 4,7 0 0,0
19.01.2019 23:00:00 -4,4 -5,2 -7,2 -0,6 1,4 5,7 2 1 5 3 NNW 1018,9 3,8 0 0,0
19.01.2019 22:00:00 -4,0 -4,6 -6,5 -0,3 1,4 5,7 2 1 4 2 N 1018,9 4,2 0 0,0
19.01.2019 21:00:00 -3,4 -4,1 -6,1 -0,1 1,4 5,7 4 2 6 3 NE 1019,0 5 0 0,0
19.01.2019 20:00:00 -3,0 -3,8 -5,3 0,1 1,4 5,7 2 1 5 3 E 1019,1 6 0 0,0
19.01.2019 19:00:00 -2,3 -3,5 -4,9 0,1 1,5 5,7 3 1 4 2 NE 1019,2 7 0 0,0
19.01.2019 18:00:00 -1,4 -3,2 -4,3 0,1 1,5 5,8 3 2 5 3 E 1019,2 9 0 0,0
19.01.2019 17:00:00 0,0 -3,1 -3,3 0,1 1,5 5,8 4 2 8 4 ESE 1019,3 11 0 0,0
19.01.2019 16:00:00 1,4 -2,7 -0,5 0,1 1,5 5,8 5 3 10 6 SE 1019,5 19 0 0,0
19.01.2019 15:00:00 2,4 -2,9 1,3 0,1 1,5 5,8 3 2 8 4 SSE 1019,7 24 51 0,0
19.01.2019 14:00:00 2,8 -3,6 2,4 0,1 1,5 5,8 0 0 6 4 N 1020,0 23 60 0,0
19.01.2019 13:00:00 2,0 -3,0 1,5 0,1 1,5 5,8 2 1 5 3 SSE 1020,5 19 60 0,0
19.01.2019 12:00:00 0,4 -2,9 1,1 0,0 1,6 5,8 2 1 3 1 NNW 1021,1 16 60 0,0
19.01.2019 11:00:00 -0,3 -3,6 -0,5 0,0 1,6 5,8 0 0 3 1 N 1021,3 15 60 0,0
19.01.2019 10:00:00 -2,2 -3,6 -2,6 0,0 1,6 5,8 0 0 3 2 N 1021,4 11 42 0,0
19.01.2019 09:00:00 -3,8 -4,4 -5,1 0,0 1,7 5,8 0 0 4 2 N 1021,2 10 0 0,0
19.01.2019 08:00:00 -3,7 -4,4 -5,7 0,1 1,7 5,8 0 0 4 2 N 1020,9 12 0 0,0
19.01.2019 07:00:00 -3,0 -3,8 -5,7 0,2 1,8 5,9 2 1 5 3 SSE 1020,7 12 0 0,0
19.01.2019 06:00:00 -2,2 -3,4 -4,3 0,3 1,8 5,9 4 2 7 4 S 1020,6 17 0 0,0
19.01.2019 05:00:00 -1,7 -2,9 -3,9 0,3 1,9 5,9 5 3 6 3 SSW 1020,7 12 0 0,0
19.01.2019 04:00:00 -0,6 -2,3 -2,9 0,2 1,9 5,9 4 2 9 5 SSW 1020,9 12 0 0,0
19.01.2019 03:00:00 -0,1 -1,8 -0,6 0,0 2,1 5,9 5 3 8 4 SSW 1021,0 11 0 0,0
19.01.2019 02:00:00 0,2 -1,8 -0,7 0,4 2,1 5,9 7 4 8 5 S 1021,0 12 0 0,0
19.01.2019 01:00:00 0,6 -1,8 -0,1 0,6 2,2 5,9 4 2 7 4 WSW 1021,1 13 0 0,0
19.01.2019 00:00:00 0,9 -1,7 -0,1 0,7 2,3 5,9 4 2 8 4 SW 1021,1 16 0 0,0
18.01.2019 23:00:00 1,2 -1,3 0,2 1,0 2,3 5,9 5 3 10 5 SW 1021,1 18 0 0,0
18.01.2019 22:00:00 1,7 -1,3 1,0 1,3 2,3 5,9 7 4 10 5 WSW 1021,0 25 0 0,0
18.01.2019 21:00:00 1,8 -1,2 1,0 1,3 2,3 5,9 6 3 11 6 W 1020,6 32 0 0,0
18.01.2019 20:00:00 1,9 -1,2 1,1 1,2 2,3 5,9 8 4 12 7 W 1020,2 30 0 0,0
18.01.2019 19:00:00 1,9 -1,2 1,1 1,2 2,3 5,9 7 4 18 10 W 1019,9 33 0 0,0
18.01.2019 18:00:00 2,0 -1,4 1,2 1,2 2,3 5,9 8 5 16 9 WSW 1019,5 42 0 0,0
18.01.2019 17:00:00 2,1 -1,4 1,2 1,2 2,3 6,0 10 5 26 14 W 1019,3 60 0 0,0
18.01.2019 16:00:00 2,9 -1,9 1,4 1,6 2,2 5,9 15 8 27 14 W 1018,9 55 18 0,0
18.01.2019 15:00:00 3,1 -1,8 3,1 0,9 2,1 5,9 16 9 27 15 W 1018,7 22 60 0,0
18.01.2019 14:00:00 2,9 -2,5 4,2 0,3 2,0 6,0 14 8 31 17 W 1018,6 20 60 0,0
18.01.2019 13:00:00 2,1 -3,0 3,5 0,2 2,1 6,0 16 9 27 15 W 1018,7 20 60 0,0
18.01.2019 12:00:00 0,7 -4,0 2,4 0,2 2,1 6,0 15 8 24 13 W 1018,8 21 60 0,0
18.01.2019 11:00:00 -0,7 -3,9 1,1 0,2 2,2 6,0 13 7 21 11 W 1018,6 31 60 0,0
18.01.2019 10:00:00 -1,8 -4,2 -1,5 0,2 2,3 6,0 8 4 14 8 WSW 1018,1 43 60 0,0
18.01.2019 09:00:00 -2,6 -4,5 -4,4 0,3 2,4 6,0 8 4 17 9 WSW 1017,3 45 12 0,0
18.01.2019 08:00:00 -2,3 -4,5 -4,3 0,4 2,5 6,0 11 6 19 10 W 1016,4 46 0 0,0
18.01.2019 07:00:00 -1,7 -4,3 -3,5 0,5 2,6 6,0 13 7 19 11 W 1015,1 36 0 0,0
18.01.2019 06:00:00 -1,1 -4,2 -2,8 0,6 2,7 6,0 13 7 28 15 WNW 1013,8 49 0 0,0
18.01.2019 05:00:00 -1,0 -3,9 -2,3 0,7 2,9 6,0 15 8 32 17 NW 1012,7 47 0 0,0
18.01.2019 04:00:00 0,0 -2,8 -0,9 0,8 3,0 6,0 17 9 34 18 NW 1011,3 49 0 0,0
18.01.2019 03:00:00 0,2 -1,5 -0,3 0,9 3,2 6,0 14 8 26 14 NW 1009,9 46 0 0,0
18.01.2019 02:00:00 -0,1 -1,4 -0,6 1,0 3,4 6,0 14 8 28 15 NNW 1008,3 62 0 0,0
18.01.2019 01:00:00 0,2 -0,6 -0,1 1,3 3,6 6,0 16 9 38 20 NNW 1006,8 1,3 0 0,4
18.01.2019 00:00:00 1,9 -1,6 0,8 1,6 3,8 5,9 23 13 42 23 W 1005,4 67 0 0,0
17.01.2019 23:00:00 1,9 -1,3 0,1 1,8 4,0 5,9 22 12 41 22 W 1003,9 69 0 0,0
17.01.2019 22:00:00 2,4 -0,7 1,0 2,5 4,2 5,9 24 13 41 22 W 1003,2 70 0 0,0
17.01.2019 21:00:00 2,9 -0,1 1,7 2,9 4,3 5,9 25 13 40 22 W 1002,4 52 0 0,0
17.01.2019 20:00:00 3,1 1,0 2,2 3,3 4,4 5,9 20 11 31 17 W 1001,4 41 0 0,0
17.01.2019 19:00:00 3,3 1,9 2,5 3,5 4,5 5,9 17 9 31 17 W 1000,4 31 0 0,2
17.01.2019 18:00:00 3,3 1,7 2,6 3,7 4,6 5,9 13 7 24 13 WSW 999,5 12 0 0,1
17.01.2019 17:00:00 3,7 1,2 2,7 4,0 4,7 5,9 13 7 35 19 WSW 998,9 70 0 0,0
17.01.2019 16:00:00 5,5 0,2 4,5 4,6 4,7 5,9 21 11 33 18 WSW 998,4 43 3 0,0
17.01.2019 15:00:00 6,3 0,3 5,8 5,2 4,7 5,9 19 10 34 18 WSW 998,4 36 10 0,0
17.01.2019 14:00:00 6,3 0,5 6,0 5,5 4,5 5,9 21 11 42 23 WSW 998,9 56 20 0,0
17.01.2019 13:00:00 6,7 0,7 7,7 6,0 4,2 5,9 26 14 45 24 WSW 999,3 34 47 0,0
17.01.2019 12:00:00 5,9 1,5 6,2 4,9 4,0 5,9 21 12 35 19 WSW 999,8 41 32 0,0
17.01.2019 11:00:00 5,1 1,8 4,9 3,9 4,0 5,9 17 9 38 21 WSW 1000,5 50 11 0,0
17.01.2019 10:00:00 5,0 1,9 4,2 3,6 4,0 5,9 21 11 - - WSW 1000,4 54 1 0,0
17.01.2019 09:00:00 4,8 1,7 3,8 3,5 4,0 5,9 - - - - - 1000,1 62 0 0,0
17.01.2019 08:00:00 4,7 2,4 3,7 3,6 4,0 5,9 18 10 36 19 WSW 999,7 37 0 0,0
17.01.2019 07:00:00 4,6 3,0 3,7 3,7 3,9 5,9 20 11 34 18 WSW 999,3 27 0 0,2
17.01.2019 06:00:00 4,9 2,7 3,9 3,6 3,9 5,9 22 12 41 22 WSW 998,8 22 0 0,0
17.01.2019 05:00:00 5,2 1,8 4,3 3,4 3,9 5,9 21 11 34 18 WSW 998,5 25 0 0,0
17.01.2019 04:00:00 5,0 1,2 4,3 3,2 3,9 5,9 23 12 38 21 SW 998,5 32 0 0,0
17.01.2019 03:00:00 4,9 0,7 4,0 3,0 3,9 5,9 21 11 39 21 SW 998,8 31 0 0,0
17.01.2019 02:00:00 4,9 0,2 4,0 2,9 4,0 5,8 24 13 47 26 SW 998,9 30 0 0,0
17.01.2019 01:00:00 4,8 0,8 3,8 2,5 4,1 5,8 18 10 31 17 SW 999,5 36 0 0,0
17.01.2019 00:00:00 3,6 0,2 2,2 2,2 4,3 5,8 12 7 21 12 SSW 1000,4 37 0 0,0
16.01.2019 23:00:00 3,3 0,1 1,9 2,5 4,6 5,8 13 7 21 11 S 1001,3 34 0 0,0
16.01.2019 22:00:00 4,0 0,2 2,6 3,1 4,8 5,8 15 8 24 13 SSW 1002,3 45 0 0,0
16.01.2019 21:00:00 4,7 0,6 3,6 3,8 4,9 5,8 13 7 30 16 SSW 1003,0 44 0 0,0
16.01.2019 20:00:00 5,3 1,1 4,6 4,4 5,0 5,8 18 10 34 18 SW 1003,7 41 0 0,0
16.01.2019 19:00:00 5,7 1,5 5,0 4,7 5,1 5,8 17 9 31 17 SSW 1004,2 42 0 0,0
16.01.2019 18:00:00 6,0 2,0 5,4 5,0 5,1 5,8 18 10 32 18 SW 1004,7 40 0 0,0
16.01.2019 17:00:00 6,6 2,8 5,9 5,3 5,2 5,8 19 10 31 17 SW 1005,2 67 0 0,0
16.01.2019 16:00:00 6,9 3,6 6,3 5,7 5,1 5,8 16 9 32 17 SW 1005,6 59 0 0,0
16.01.2019 15:00:00 7,1 3,9 6,6 5,9 5,1 5,8 18 10 30 16 SW 1006,0 34 0 0,0
16.01.2019 14:00:00 7,4 3,9 6,8 6,0 5,0 5,8 16 8 31 17 SW 1006,5 52 0 0,0
16.01.2019 13:00:00 7,5 4,0 7,2 5,9 4,8 5,8 19 11 36 19 SW 1007,0 59 0 0,0
16.01.2019 12:00:00 7,4 3,9 6,9 5,7 4,7 5,8 18 10 35 19 SW 1007,9 40 0 0,0
16.01.2019 11:00:00 7,3 3,9 6,7 5,4 4,7 5,8 17 9 32 17 WSW 1008,6 28 0 0,0
16.01.2019 10:00:00 7,1 3,8 6,4 5,1 4,6 5,8 17 9 27 15 WSW 1008,8 24 0 0,0
16.01.2019 09:00:00 6,9 3,8 6,1 4,9 4,6 5,8 18 10 29 16 WSW 1008,9 22 0 0,0
16.01.2019 08:00:00 6,5 4,0 5,7 4,9 4,6 5,8 14 7 31 17 WSW 1008,9 15 0 0,0
16.01.2019 07:00:00 6,6 3,8 5,7 4,8 4,6 5,8 17 9 28 15 WSW 1009,0 12 0 0,0
16.01.2019 06:00:00 6,3 3,8 5,3 4,9 4,6 5,8 15 8 31 17 WSW 1009,5 11 0 0,0
16.01.2019 05:00:00 6,3 3,9 5,6 4,9 4,5 5,8 22 12 36 19 WSW 1009,9 12 0 0,0
16.01.2019 04:00:00 6,9 4,4 6,0 5,2 4,5 5,8 20 11 42 23 W 1010,1 11 0 0,0

tt = temperature
td = dewpoint
tt 5cm = temperature 5cm
tt -5cm = temperature -5cm
tt -20cm = temperature -20cm
tt -100cm = temperature -100cm
ff = wind speed
fx = gusts
dd = wind direction
ppp = reduced air pressure
vv = visibility
sd = sunshine duration
rr = precipitation

Next stations